When you browse on this site, cookies collect data to enhance your experience and personalize the content and advertising you see.
Visit our Privacy Policy to learn more. By continuing to use the site, you agree to this use of cookies and data.
  • In France
  • List of Countries
  • For 7 days
  • Water Temperature
  • Weather Map
  • Weather Widgets
  • user-avatar
    Login

    Hourly Weather Saarbrucken

    Today, 11 December, Wednesday

    Time Temperature Precipitation Wind Pressure Humidity
    00:00 -1°C° 0 mm 2 mps 741 mmHg 86%
    01:00 +1°C° 0 mm 2 mps 741 mmHg 84%
    02:00 +1°C° 0 mm 2 mps 740 mmHg 82%
    03:00 +1°C° 0 mm 2 mps 739 mmHg 80%
    04:00 +2°C° 0.1 mm 2 mps 739 mmHg 81%
    05:00 +1°C° 0.1 mm 3 mps 738 mmHg 82%
    06:00 +1°C° 0 mm 3 mps 738 mmHg 79%
    07:00 +1°C° 0.6 mm 3 mps 738 mmHg 82%
    08:00 +1°C° 0.6 mm 3 mps 737 mmHg 85%
    09:00 +1°C° 0.6 mm 3 mps 736 mmHg 88%
    10:00 +1°C° 0.6 mm 3 mps 736 mmHg 89%
    11:00 +1°C° 0.6 mm 3 mps 735 mmHg 90%
    12:00 +1°C° 0.6 mm 3 mps 735 mmHg 92%
    13:00 +2°C° 0.5 mm 3 mps 734 mmHg 93%
    14:00 +1°C° 0.5 mm 4 mps 734 mmHg 94%
    15:00 +1°C° 0.5 mm 4 mps 733 mmHg 94%
    16:00 +1°C° 1 mm 4 mps 733 mmHg 94%
    17:00 +3°C° 1 mm 4 mps 733 mmHg 94%
    18:00 +2°C° 1 mm 5 mps 734 mmHg 94%
    19:00 +3°C° 0 mm 4 mps 733 mmHg 94%
    20:00 +1°C° 0 mm 4 mps 733 mmHg 94%
    21:00 +1°C° 0 mm 4 mps 733 mmHg 94%
    22:00 +2°C° 0 mm 3 mps 733 mmHg 94%
    23:00 +1°C° 0 mm 3 mps 732 mmHg 95%

    Tomorrow, 12 December, Thursday

    Time Temperature Precipitation Wind Pressure Humidity
    00:00 +1°C° 0 mm 3 mps 732 mmHg 95%
    01:00 +1°C° 0.1 mm 3 mps 732 mmHg 95%
    02:00 +1°C° 0.1 mm 4 mps 731 mmHg 96%
    03:00 +1°C° 0.1 mm 4 mps 731 mmHg 96%
    04:00 +1°C° 0.2 mm 4 mps 731 mmHg 96%
    05:00 +1°C° 0.2 mm 4 mps 732 mmHg 95%
    06:00 +1°C° 0.2 mm 4 mps 732 mmHg 94%
    07:00 +1°C° 0.1 mm 4 mps 732 mmHg 92%
    08:00 +1°C° 0.1 mm 4 mps 732 mmHg 89%
    09:00 +1°C° 0.1 mm 4 mps 732 mmHg 87%
    10:00 +1°C° 0 mm 4 mps 732 mmHg 85%
    11:00 +1°C° 0 mm 4 mps 731 mmHg 84%
    12:00 +1°C° 0 mm 4 mps 731 mmHg 83%
    13:00 +1°C° 0 mm 4 mps 730 mmHg 82%
    14:00 +1°C° 0 mm 4 mps 729 mmHg 82%
    15:00 +1°C° 0 mm 4 mps 728 mmHg 81%
    16:00 +1°C° 0 mm 4 mps 728 mmHg 83%
    17:00 0°C° 0 mm 4 mps 727 mmHg 86%
    18:00 0°C° 0 mm 4 mps 726 mmHg 88%
    19:00 0°C° 0 mm 4 mps 725 mmHg 87%
    20:00 -1°C° 0 mm 4 mps 723 mmHg 86%
    21:00 -1°C° 0 mm 4 mps 722 mmHg 85%
    22:00 -1°C° 0.8 mm 5 mps 720 mmHg 89%
    23:00 -1°C° 0.8 mm 5 mps 719 mmHg 93%

    Day after tomorrow, 13 December, Friday

    Time Temperature Precipitation Wind Pressure Humidity
    00:00 -2°C° 0.8 mm 6 mps 718 mmHg 97%
    01:00 -1°C° 0.8 mm 6 mps 716 mmHg 96%
    02:00 +1°C° 0.8 mm 6 mps 715 mmHg 95%
    03:00 +2°C° 0.8 mm 6 mps 713 mmHg 94%
    04:00 +3°C° 2.3 mm 7 mps 713 mmHg 94%
    05:00 +3°C° 2.3 mm 7 mps 712 mmHg 94%
    06:00 +3°C° 2.3 mm 7 mps 711 mmHg 94%
    07:00 +3°C° 0.6 mm 7 mps 712 mmHg 93%
    08:00 +2°C° 0.6 mm 7 mps 712 mmHg 92%
    09:00 +2°C° 0.6 mm 7 mps 713 mmHg 92%
    10:00 +2°C° 0.4 mm 7 mps 714 mmHg 90%
    11:00 +2°C° 0.4 mm 7 mps 715 mmHg 89%
    12:00 +2°C° 0.4 mm 7 mps 716 mmHg 88%
    13:00 +2°C° 0.6 mm 7 mps 716 mmHg 90%
    14:00 0°C° 0.6 mm 7 mps 717 mmHg 93%
    15:00 0°C° 0.6 mm 7 mps 718 mmHg 96%
    16:00 0°C° 0.6 mm 7 mps 719 mmHg 92%
    17:00 +2°C° 0.6 mm 7 mps 720 mmHg 88%
    18:00 +2°C° 0.6 mm 7 mps 721 mmHg 84%
    19:00 +3°C° 0 mm 7 mps 722 mmHg 86%
    20:00 +3°C° 0 mm 6 mps 722 mmHg 88%
    21:00 +3°C° 0 mm 6 mps 723 mmHg 89%
    22:00 +3°C° 0.2 mm 6 mps 723 mmHg 89%
    23:00 +3°C° 0.2 mm 6 mps 724 mmHg 89%

    14 December, Saturday

    Time Temperature Precipitation Wind Pressure Humidity
    00:00 +3°C° 0.2 mm 6 mps 725 mmHg 89%
    01:00 +3°C° 0 mm 6 mps 725 mmHg 89%
    02:00 +3°C° 0 mm 7 mps 725 mmHg 89%
    03:00 +3°C° 0 mm 7 mps 725 mmHg 89%
    04:00 +2°C° 0.6 mm 8 mps 725 mmHg 89%
    05:00 +2°C° 0.6 mm 8 mps 724 mmHg 90%
    06:00 +2°C° 0.6 mm 9 mps 724 mmHg 90%
    07:00 +3°C° 0.3 mm 9 mps 725 mmHg 88%
    08:00 +5°C° 0.3 mm 9 mps 725 mmHg 87%
    09:00 +6°C° 0.3 mm 8 mps 726 mmHg 86%
    10:00 +6°C° 0 mm 8 mps 726 mmHg 81%
    11:00 +6°C° 0 mm 8 mps 727 mmHg 76%
    12:00 +6°C° 0 mm 8 mps 727 mmHg 71%
    13:00 +6°C° 0 mm 7 mps 727 mmHg 74%
    14:00 +5°C° 0 mm 6 mps 728 mmHg 78%
    15:00 +6°C° 0 mm 4 mps 728 mmHg 81%
    16:00 +6°C° 0.3 mm 5 mps 728 mmHg 85%
    17:00 +7°C° 0.3 mm 6 mps 728 mmHg 88%
    18:00 +7°C° 0.3 mm 6 mps 727 mmHg 91%
    19:00 +8°C° 0.8 mm 6 mps 728 mmHg 89%
    20:00 +8°C° 0.8 mm 6 mps 728 mmHg 87%
    21:00 +8°C° 0.8 mm 6 mps 729 mmHg 85%
    22:00 +7°C° 0.2 mm 5 mps 729 mmHg 87%
    23:00 +7°C° 0.2 mm 4 mps 729 mmHg 89%

    15 December, Sunday

    Time Temperature Precipitation Wind Pressure Humidity
    00:00 +6°C° 0.2 mm 4 mps 730 mmHg 90%
    01:00 +6°C° 1 mm 4 mps 730 mmHg 91%
    02:00 +6°C° 1 mm 4 mps 729 mmHg 93%
    03:00 +6°C° 1 mm 4 mps 729 mmHg 94%
    04:00 +6°C° 1.2 mm 5 mps 729 mmHg 92%
    05:00 +7°C° 1.2 mm 6 mps 729 mmHg 89%
    06:00 +6°C° 1.2 mm 7 mps 729 mmHg 87%
    07:00 +6°C° 0.6 mm 8 mps 729 mmHg 85%
    08:00 +7°C° 0.6 mm 8 mps 730 mmHg 82%
    09:00 +7°C° 0.6 mm 9 mps 731 mmHg 80%
    10:00 +6°C° 0 mm 9 mps 732 mmHg 73%
    11:00 +6°C° 0 mm 9 mps 733 mmHg 66%
    12:00 +5°C° 0 mm 9 mps 734 mmHg 60%
    13:00 +5°C° 0 mm 8 mps 734 mmHg 63%
    14:00 +4°C° 0 mm 6 mps 735 mmHg 66%
    15:00 +5°C° 0 mm 5 mps 736 mmHg 70%
    16:00 +4°C° 0 mm 4 mps 736 mmHg 74%
    17:00 +3°C° 0 mm 3 mps 737 mmHg 78%
    18:00 +4°C° 0 mm 2 mps 737 mmHg 82%
    19:00 +4°C° 0 mm 2 mps 737 mmHg 85%
    20:00 +4°C° 0 mm 2 mps 737 mmHg 88%
    21:00 +4°C° 0 mm 2 mps 737 mmHg 91%
    22:00 +4°C° 0 mm 2 mps 737 mmHg 92%
    23:00 +5°C° 0 mm 2 mps 737 mmHg 92%

    16 December, Monday

    Time Temperature Precipitation Wind Pressure Humidity
    00:00 +5°C° 0 mm 2 mps 736 mmHg 93%
    01:00 +6°C° 0.4 mm 2 mps 736 mmHg 94%
    02:00 +6°C° 0.4 mm 2 mps 736 mmHg 95%
    03:00 +6°C° 0.4 mm 2 mps 736 mmHg 96%
    04:00 +6°C° 0.5 mm 2 mps 735 mmHg 97%
    05:00 +6°C° 0.5 mm 2 mps 735 mmHg 97%
    06:00 +7°C° 0.5 mm 2 mps 735 mmHg 98%
    07:00 +7°C° 1.3 mm 2 mps 735 mmHg 98%
    08:00 +7°C° 1.3 mm 2 mps 735 mmHg 98%
    09:00 +7°C° 1.3 mm 2 mps 735 mmHg 97%
    10:00 +7°C° 0.3 mm 2 mps 734 mmHg 94%
    11:00 +8°C° 0.3 mm 3 mps 734 mmHg 91%
    12:00 +8°C° 0.3 mm 4 mps 733 mmHg 88%
    13:00 +9°C° 0.3 mm 3 mps 733 mmHg 89%
    14:00 +9°C° 0.3 mm 3 mps 733 mmHg 90%
    15:00 +9°C° 0.3 mm 3 mps 732 mmHg 91%
    16:00 +9°C° 0.2 mm 3 mps 732 mmHg 89%
    17:00 +8°C° 0.2 mm 3 mps 732 mmHg 88%
    18:00 +8°C° 0.2 mm 3 mps 731 mmHg 87%
    19:00 +8°C° 0 mm 3 mps 731 mmHg 85%
    20:00 +8°C° 0 mm 3 mps 731 mmHg 83%
    21:00 +8°C° 0 mm 3 mps 731 mmHg 81%
    22:00 +8°C° 0 mm 3 mps 730 mmHg 80%
    23:00 +8°C° 0 mm 3 mps 730 mmHg 78%
    Show more